Weather in Staroye Shatkino

Russia / Penza Oblast     52°54′48″N   46°15′41″E
temp.,
°C
wind,
m/s
gust,
m/s
humid.,
%
clouds,
%
prec.,
mm/h
press.,
hPa
HPBL,
m
7 march, sun
sun700:00−14w019554 0.0 101321
03:00−11ssw119771 0.6 101321
06:00−12wnw239798 0.4 101433
09:00−11w469585 0.4 1014234
12:00−7wsw698773 0.0 1013738
15:00−7sw7118579 0.0 1010870
18:00−7ssw81494100 0.3 1007918
21:00−5sw91888100 1.5 10041135
8 march, mon
mon800:00−5sw101793100 1.3 9991026
03:00−3sw101893100 2.0 9981128
06:00−5w7149099 0.3 1000696
09:00−6w7138365 0.3 1002977
12:00−4wsw7117926 0.0 10031210
15:00−3sw698347 0.1 10031124
18:00−5ssw5119298 0.2 1003331
21:00−7wsw5119495 0.4 1004259
9 march, tue
tue900:00−10w4109692 0.1 1006218
03:00−15w469885 0.1 100884
06:00−17w339977 0.0 101029
09:00−13w359678 0.0 1011213
12:00−8wnw358892 0.0 1011471
15:00−7wnw468694 0.0 1012725
18:00−12nw3693100 0.1 1012123
21:00−15nw3396100 0.1 101467
10 march, wed
wed1000:00−15nw239794 0.1 101552
03:00−19nw3310076 0.1 101627
06:00−22nw369959 0.0 101888
09:00−19nw469574 0.1 1019318
12:00−15nnw4686100 0.1 1021762
15:00−15nw5786100 0.1 1021927
18:00−20nw4893100 0.1 1023219
21:00−25nnw349568 0.1 102564
11 march, thu
thu1100:00−27nw33980 0.0 102629
03:00−28nw33980 0.0 102822
06:00−28wnw34980 0.0 102839
09:00−22wnw47950 0.0 1029247
12:00−15wnw58860 0.0 1028433
15:00−13wnw69840 0.0 1028509
18:00−17wnw47920 0.0 1029112
21:00−20w44970 0.0 103172